Starlink 4784

operational
NORAD ID: 53839 Int'l Des: 2022-114 Owner: SPXS Country: US Constellation: starlink
LEOCIRCULAR

About Starlink 4784

Description loading...

Live Position

Loading 3D Globe...

Upcoming Passes

Altitude History

Altitude vs Time

uPlot chart will show altitude changes over time

Two-Line Element Set

1 53839U 22114X 26102.83985485 .00000602 00000-0 55938-4 0 9991
2 53839 53.2165 141.0619 0001397 91.5909 268.5243 15.08839984198123
Epoch: Apr 12, 2026 • Age: 12 hours

Current Status

Altitude 545.2 km
Velocity 7.60 km/s
Sub-Earth Point 52.36°N, 73.07°W
Launch Date Sep 19, 2022
Age 3.5 years
Type internet

Technical Details

Classification Payload
Mass 305.00 kg
Dry Mass 290.00 kg
Total Mass 305.00 kg
Length 0.20 m
Diameter 2.80 m
Span 9.00 m
Shape Box + pan
Manufacturer SPXS
Bus Type Starlink
Phase Status In Orbit
Owner/State SPXS/US

Large Constellations

Loading constellations...